Location: Ferchesar
(52.6477°N, 12.4298°E)
Time: 09:18:15
(UTC+01:00)

Vanguard 3 - Pass Details

Date: 09 December 2021
Orbit: 508 x 3260 km, 33.3° (Epoch: 24 January)

Event Time Altitude Azimuth Distance (km) Brightness Sun altitude
Rises 03:26:30 0° 236° (WSW) 6,729 - -41.3°
Reaches altitude 10° 03:31:11 10° 230° (SW) 5,939 - -40.7°
Exits shadow 03:42:07 33° 200° (SSW) 4,527 10.5 -39.1°
Maximum altitude 03:47:58 39° 171° (S) 4,229 10.6 -38.2°
Drops below altitude 10° 04:03:31 10° 111° (ESE) 5,528 12.0 -35.9°
Sets 04:07:40 0° 104° (ESE) 6,240 12.5 -35.3°
